EZY23JK EGPE-EGGD

Flight info

Callsign EZY23JK
Flight time 0h 57m
Altitude 33000
Route GUSSI NESDI ERSON DCS ADZOP EGTOC NOKIN N862 KARNO ALHUP LUCSA N862 WEVBE
Aircraft A320/M-SDE3FGHIRWY/LB1

Departure

Time 2026-05-05 01:06
Airport Inverness Airport (EGPE)

Arrival

Time 2026-05-05 02:03
Airport Bristol Airport (EGGD)
Time Latitude Longitude Altitude Speed Heading
2026-05-05 01:05 57.25782 -4.17211 14062 ft 370 kts 153°
2026-05-05 01:06 57.23524 -4.15052 14702 ft 371 kts 162°
2026-05-05 01:06 57.21028 -4.13707 15385 ft 369 kts 174°
2026-05-05 01:06 57.18485 -4.13302 16089 ft 367 kts 185°
2026-05-05 01:06 57.15950 -4.13734 16764 ft 367 kts 192°
2026-05-05 01:07 57.13442 -4.14361 17416 ft 370 kts 192°
2026-05-05 01:07 57.10876 -4.15004 18057 ft 374 kts 192°
2026-05-05 01:07 57.08282 -4.15646 18659 ft 378 kts 192°
2026-05-05 01:07 57.05664 -4.16291 19223 ft 381 kts 192°
2026-05-05 01:08 57.03026 -4.16934 19765 ft 384 kts 192°
2026-05-05 01:08 57.00365 -4.17581 20317 ft 387 kts 192°
2026-05-05 01:08 56.97690 -4.18233 20861 ft 390 kts 192°
2026-05-05 01:08 56.94985 -4.18891 21407 ft 394 kts 192°
2026-05-05 01:09 56.92250 -4.19563 21939 ft 397 kts 192°
2026-05-05 01:09 56.89503 -4.20240 22469 ft 401 kts 192°
2026-05-05 01:09 56.86728 -4.20922 22986 ft 404 kts 191°
2026-05-05 01:09 56.83923 -4.21602 23491 ft 407 kts 191°
2026-05-05 01:10 56.81104 -4.22286 23926 ft 410 kts 191°
2026-05-05 01:10 56.78267 -4.22976 24371 ft 413 kts 191°
2026-05-05 01:10 56.75410 -4.23663 24773 ft 415 kts 192°
2026-05-05 01:10 56.72547 -4.24351 25224 ft 416 kts 192°
2026-05-05 01:11 56.69673 -4.25050 25652 ft 418 kts 192°
2026-05-05 01:11 56.66790 -4.25754 26060 ft 420 kts 192°
2026-05-05 01:11 56.63886 -4.26462 26462 ft 422 kts 192°
2026-05-05 01:11 56.60964 -4.27168 26871 ft 424 kts 192°
2026-05-05 01:12 56.58070 -4.27861 27255 ft 426 kts 192°
2026-05-05 01:12 56.55086 -4.28573 27638 ft 429 kts 192°
2026-05-05 01:12 56.52155 -4.29266 28037 ft 431 kts 192°
2026-05-05 01:12 56.49165 -4.29885 28371 ft 435 kts 187°
2026-05-05 01:13 56.46116 -4.29771 28766 ft 442 kts 178°
2026-05-05 01:13 56.43066 -4.28746 29140 ft 450 kts 168°
2026-05-05 01:13 56.40066 -4.27035 29497 ft 453 kts 166°
2026-05-05 01:13 56.37057 -4.25284 29831 ft 455 kts 166°
2026-05-05 01:14 56.34035 -4.23542 30166 ft 458 kts 166°
2026-05-05 01:14 56.30993 -4.21793 30444 ft 459 kts 166°
2026-05-05 01:14 56.27940 -4.20035 30712 ft 461 kts 166°
2026-05-05 01:14 56.24874 -4.18272 30987 ft 463 kts 166°
2026-05-05 01:15 56.21793 -4.16506 31238 ft 465 kts 166°
2026-05-05 01:15 56.18714 -4.14742 31575 ft 465 kts 166°
2026-05-05 01:15 56.15638 -4.12980 31962 ft 464 kts 166°
2026-05-05 01:15 56.12565 -4.11223 32343 ft 463 kts 166°
2026-05-05 01:16 56.09497 -4.09476 32717 ft 462 kts 166°
2026-05-05 01:16 56.06433 -4.07735 33004 ft 462 kts 166°
2026-05-05 01:16 56.00398 -4.04298 33051 ft 450 kts 166°
2026-05-05 01:17 55.94441 -4.00924 33052 ft 448 kts 166°
2026-05-05 01:17 55.88536 -3.97598 33054 ft 448 kts 166°
2026-05-05 01:18 55.82594 -3.94257 33051 ft 448 kts 166°
2026-05-05 01:18 55.76635 -3.90913 33055 ft 448 kts 166°
2026-05-05 01:19 55.70686 -3.87597 33045 ft 448 kts 166°
2026-05-05 01:19 55.64733 -3.84289 33052 ft 448 kts 166°
2026-05-05 01:20 55.58787 -3.80982 33064 ft 448 kts 166°
2026-05-05 01:20 55.52839 -3.77692 33068 ft 448 kts 167°
2026-05-05 01:21 55.46890 -3.74418 33069 ft 448 kts 167°
2026-05-05 01:21 55.40934 -3.71138 33047 ft 448 kts 166°
2026-05-05 01:22 55.35026 -3.67886 33055 ft 448 kts 167°
2026-05-05 01:22 55.29077 -3.64631 33056 ft 448 kts 167°
2026-05-05 01:23 55.23125 -3.61392 33058 ft 448 kts 167°
2026-05-05 01:23 55.17177 -3.58168 33044 ft 447 kts 166°
2026-05-05 01:24 55.11229 -3.54942 33054 ft 447 kts 166°
2026-05-05 01:24 55.05283 -3.51730 33058 ft 447 kts 166°
2026-05-05 01:25 54.99345 -3.48535 33052 ft 447 kts 166°
2026-05-05 01:25 54.93399 -3.45351 33043 ft 447 kts 166°
2026-05-05 01:26 54.87460 -3.42180 33055 ft 446 kts 166°
2026-05-05 01:26 54.81515 -3.39025 33060 ft 446 kts 166°
2026-05-05 01:27 54.75576 -3.35873 33059 ft 446 kts 166°
2026-05-05 01:27 54.69578 -3.33291 33046 ft 443 kts 173°
2026-05-05 01:28 54.63510 -3.31540 33051 ft 442 kts 173°
2026-05-05 01:28 54.57471 -3.29821 33055 ft 442 kts 173°
2026-05-05 01:29 54.51359 -3.28072 33058 ft 442 kts 173°
2026-05-05 01:29 54.45315 -3.26332 33048 ft 442 kts 173°
2026-05-05 01:30 54.39240 -3.24588 33053 ft 442 kts 172°
2026-05-05 01:30 54.33166 -3.22863 33058 ft 442 kts 172°
2026-05-05 01:31 54.27098 -3.21146 33056 ft 442 kts 172°
2026-05-05 01:31 54.21042 -3.19436 33055 ft 441 kts 172°
2026-05-05 01:32 54.16002 -3.18020 33046 ft 442 kts 172°
2026-05-05 01:32 54.08942 -3.16041 33055 ft 442 kts 171°
2026-05-05 01:33 54.02869 -3.14334 33064 ft 442 kts 171°
2026-05-05 01:33 53.97785 -3.12912 33061 ft 441 kts 171°
2026-05-05 01:34 53.91757 -3.11237 33061 ft 441 kts 171°
2026-05-05 01:34 53.85699 -3.09551 33059 ft 441 kts 171°
2026-05-05 01:35 53.79638 -3.07873 33054 ft 441 kts 171°
2026-05-05 01:35 53.73583 -3.06192 33057 ft 441 kts 171°
2026-05-05 01:36 53.67527 -3.04515 33058 ft 441 kts 170°
2026-05-05 01:36 53.61502 -3.02864 33061 ft 440 kts 170°
2026-05-05 01:37 53.55444 -3.01216 33063 ft 440 kts 170°
2026-05-05 01:37 53.49401 -2.99572 33060 ft 440 kts 170°
2026-05-05 01:38 53.43350 -2.97921 33068 ft 440 kts 170°
2026-05-05 01:38 53.37308 -2.96270 33073 ft 440 kts 170°
2026-05-05 01:39 53.31262 -2.94625 33075 ft 440 kts 170°
2026-05-05 01:39 53.25204 -2.92999 33069 ft 440 kts 170°
2026-05-05 01:40 53.19163 -2.91378 33076 ft 440 kts 169°
2026-05-05 01:40 53.13148 -2.89757 33074 ft 440 kts 169°
2026-05-05 01:41 53.07084 -2.88426 33074 ft 440 kts 178°
2026-05-05 01:41 53.00940 -2.88882 33084 ft 446 kts 182°
2026-05-05 01:42 52.97810 -2.89153 32606 ft 452 kts 182°
2026-05-05 01:42 52.94683 -2.89410 31954 ft 449 kts 181°
2026-05-05 01:42 52.91567 -2.89660 31316 ft 446 kts 181°
2026-05-05 01:42 52.88491 -2.90043 30690 ft 443 kts 186°
2026-05-05 01:43 52.85447 -2.90767 30064 ft 441 kts 186°
2026-05-05 01:43 52.82420 -2.91486 29346 ft 438 kts 186°
2026-05-05 01:43 52.79408 -2.92199 28647 ft 435 kts 187°
2026-05-05 01:43 52.76424 -2.92902 27966 ft 432 kts 187°
2026-05-05 01:44 52.73463 -2.93597 27300 ft 428 kts 187°
2026-05-05 01:44 52.70526 -2.94183 26724 ft 422 kts 183°
2026-05-05 01:44 52.67614 -2.94421 26194 ft 415 kts 182°
2026-05-05 01:44 52.64754 -2.94654 25679 ft 409 kts 183°
2026-05-05 01:45 52.61923 -2.94889 25180 ft 403 kts 183°
2026-05-05 01:45 52.59145 -2.95123 24691 ft 397 kts 184°
2026-05-05 01:45 52.56411 -2.95354 24213 ft 391 kts 184°
2026-05-05 01:45 52.53713 -2.95581 23740 ft 385 kts 184°
2026-05-05 01:46 52.51056 -2.95800 23218 ft 380 kts 184°
2026-05-05 01:46 52.48475 -2.96010 22763 ft 373 kts 184°
2026-05-05 01:46 52.45904 -2.96218 22315 ft 367 kts 183°
2026-05-05 01:46 52.43372 -2.96423 21858 ft 362 kts 184°
2026-05-05 01:47 52.40868 -2.96629 21408 ft 358 kts 184°
2026-05-05 01:47 52.38394 -2.96830 20960 ft 354 kts 184°
2026-05-05 01:47 52.35939 -2.97028 20494 ft 351 kts 184°
2026-05-05 01:47 52.33508 -2.97228 20036 ft 349 kts 184°
2026-05-05 01:48 52.31090 -2.97427 19573 ft 347 kts 184°
2026-05-05 01:48 52.28678 -2.97623 19115 ft 345 kts 184°
2026-05-05 01:48 52.26284 -2.97819 18655 ft 344 kts 184°
2026-05-05 01:48 52.23896 -2.98014 18174 ft 343 kts 183°
2026-05-05 01:49 52.21518 -2.98209 17702 ft 340 kts 183°
2026-05-05 01:49 52.19195 -2.98400 17265 ft 337 kts 183°
2026-05-05 01:49 52.16862 -2.98592 16827 ft 335 kts 183°
2026-05-05 01:49 52.14539 -2.98783 16399 ft 333 kts 184°
2026-05-05 01:50 52.12228 -2.98972 15976 ft 331 kts 184°
2026-05-05 01:50 52.09909 -2.99156 15872 ft 336 kts 184°
2026-05-05 01:50 52.07568 -2.99341 15775 ft 338 kts 184°
2026-05-05 01:50 52.05223 -2.99530 15637 ft 338 kts 184°
2026-05-05 01:51 52.02874 -2.99720 15486 ft 337 kts 184°
2026-05-05 01:51 52.00530 -2.99910 15346 ft 337 kts 184°
2026-05-05 01:51 51.98180 -3.00100 15210 ft 338 kts 183°
2026-05-05 01:51 51.95860 -3.00119 15073 ft 338 kts 175°
2026-05-05 01:52 51.93548 -2.99405 14790 ft 339 kts 163°
2026-05-05 01:52 51.91334 -2.98101 14390 ft 338 kts 160°
2026-05-05 01:52 51.89138 -2.96765 14018 ft 337 kts 160°
2026-05-05 01:52 51.86944 -2.95439 13624 ft 337 kts 160°
2026-05-05 01:53 51.84752 -2.94120 13232 ft 335 kts 160°
2026-05-05 01:53 51.82572 -2.92816 12863 ft 333 kts 161°
2026-05-05 01:53 51.80406 -2.91526 12507 ft 331 kts 161°
2026-05-05 01:53 51.78248 -2.90243 12145 ft 329 kts 161°
2026-05-05 01:54 51.76104 -2.88968 11826 ft 325 kts 160°
2026-05-05 01:54 51.74022 -2.87726 11697 ft 313 kts 160°
2026-05-05 01:54 51.71962 -2.86835 11568 ft 301 kts 175°
2026-05-05 01:54 51.69910 -2.86992 11342 ft 293 kts 188°
2026-05-05 01:55 51.67893 -2.87447 11028 ft 291 kts 189°
2026-05-05 01:55 51.65900 -2.87915 10687 ft 288 kts 189°
2026-05-05 01:55 51.63931 -2.88385 10131 ft 284 kts 189°
2026-05-05 01:55 51.61982 -2.88849 9501 ft 282 kts 190°
2026-05-05 01:56 51.60053 -2.89308 8822 ft 279 kts 189°
2026-05-05 01:56 51.58130 -2.89762 8129 ft 278 kts 189°
2026-05-05 01:56 51.56217 -2.90209 7435 ft 278 kts 189°
2026-05-05 01:56 51.54315 -2.90652 6949 ft 269 kts 189°
2026-05-05 01:57 51.52536 -2.91062 6829 ft 248 kts 189°
2026-05-05 01:57 51.50904 -2.91436 6589 ft 235 kts 189°
2026-05-05 01:57 51.49297 -2.91808 6153 ft 232 kts 189°
2026-05-05 01:57 51.47706 -2.92177 5687 ft 230 kts 188°
2026-05-05 01:58 51.46124 -2.92545 5278 ft 229 kts 188°
2026-05-05 01:58 51.44551 -2.92910 4864 ft 228 kts 188°
2026-05-05 01:58 51.42985 -2.93274 4440 ft 227 kts 188°
2026-05-05 01:58 51.41429 -2.93637 4037 ft 225 kts 187°
2026-05-05 01:59 51.39887 -2.93951 3634 ft 222 kts 179°
2026-05-05 01:59 51.38463 -2.93264 3188 ft 212 kts 140°
2026-05-05 01:59 51.37658 -2.91488 2906 ft 187 kts 105°
2026-05-05 01:59 51.37558 -2.89579 2700 ft 161 kts 84°
2026-05-05 02:00 51.37627 -2.87894 2472 ft 144 kts 84°
2026-05-05 02:00 51.37691 -2.86350 2281 ft 135 kts 83°
2026-05-05 02:00 51.37751 -2.84870 2109 ft 132 kts 83°
2026-05-05 02:00 51.37810 -2.83410 1933 ft 131 kts 83°
2026-05-05 02:01 51.37869 -2.81962 1756 ft 130 kts 83°
2026-05-05 02:01 51.37926 -2.80529 1563 ft 129 kts 84°
2026-05-05 02:01 51.37984 -2.79089 1381 ft 130 kts 84°
2026-05-05 02:01 51.38041 -2.77644 1198 ft 130 kts 84°
2026-05-05 02:02 51.38099 -2.76204 1041 ft 130 kts 84°
2026-05-05 02:02 51.38156 -2.74764 826 ft 129 kts 84°
2026-05-05 02:02 51.38210 -2.73334 679 ft 129 kts 84°
2026-05-05 02:02 51.38266 -2.71990 626 ft 111 kts 86°
2026-05-05 02:03 51.38299 -2.71114 604 ft 49 kts 86°
2026-05-05 02:03 51.38318 -2.70791 608 ft 15 kts 63°
2026-05-05 02:03 51.38403 -2.70725 623 ft 13 kts 18°
2026-05-05 02:03 51.38471 -2.70757 622 ft 11 kts 288°
2026-05-05 02:04 51.38470 -2.70853 617 ft 6 kts 267°
2026-05-05 02:04 51.38466 -2.70931 621 ft 12 kts 266°
2026-05-05 02:04 51.38461 -2.71055 615 ft 11 kts 266°
2026-05-05 02:04 51.38457 -2.71158 615 ft 9 kts 266°
2026-05-05 02:05 51.38451 -2.71301 620 ft 13 kts 266°
2026-05-05 02:05 51.38463 -2.71409 617 ft 7 kts 334°
2026-05-05 02:05 51.38509 -2.71412 613 ft 6 kts 358°
2026-05-05 02:05 51.38541 -2.71415 613 ft 2 kts 356°
2026-05-05 02:06 51.38543 -2.71416 613 ft 0 kts 356°